"Pseudo-MPEC" for C02A3K2

Created 2019 Jan 12 21:18:08 UT using Find_Orb

Click here for an explanation of pseudo-MPECs

 
 Astrometry: 
     C02A3K2  C2019 01 11.28949 06 13 29.40 -12 39 14.2    ~1B8I 19.8 GVNEOCPG96
     C02A3K2  C2019 01 11.29513 06 13 29.14 -12 38 44.3    ~1B8I 20.1 GVNEOCPG96
     C02A3K2  C2019 01 11.30074 06 13 28.85 -12 38 15.1    ~1B8I 19.8 GVNEOCPG96
     C02A3K2  C2019 01 11.30635 06 13 28.55 -12 37 45.7    ~1B8I 20.0 GVNEOCPG96
     C02A3K2  C2019 01 11.36900 06 13 25.32 -12 32 16.9    ~1BAI 19.5 GVNEOCPI52
     C02A3K2  C2019 01 11.37197 06 13 25.23 -12 32 03.0    ~1BAI 20.3 GVNEOCPI52
     C02A3K2  C2019 01 11.37239 06 13 25.22 -12 32 00.0    ~1BAI 20.1 GVNEOCPI52
     C02A3K2 KC2019 01 11)iyQ[O[:U*NdAstrometryi-amh*mid16+#K[%7^.Z79o@NcuX7!L01
     C02A3K2 KC2019 01 11hP@RaV]\rCsredacted;0,-GEWgt@,2r)G[g)2/Y-at=x8yK6L[BL01
     C02A3K2 KC2019 01 111AC9_Dt'N`6-mR\1*N0Ud]7`qt(bxwM?yK2_o`@CGV+n.gYmojHZL01
     C02A3K2 |C2019 01 12nfA+SlrlbXclick2_YCjN+1-x[QGo2:id(lXnFTSSFKFb*2HcUlk807
     C02A3K2 |C2019 01 12`.=Uw']C:Qin*wn0CWnUhere%1eq#LOVeB`PW[(9rKSIo!-loqiL807
     C02A3K2 |C2019 01 12i,0/)JiY($;AvANy6O,\x$%KCWV@u3tt*M#/p67tRXJs,Ic5Vy34807
     C02A3K2 HC2019 01 1206O0eVgtMX1!0CL])O+S+s1D+Fm71for]=`H(p5VwmAyWd%nmTne691
     C02A3K2 HC2019 01 12LYcjy[*G=7tx^;Qp0dM3mX4dG3LZO6$(q.P4bAb:%$EO^/:eN'X`691
     C02A3K2 HC2019 01 12v^#gNbq%8%?q]?GAN;,VB?=]aWqDv/GwvO_Glexplanationd9K^691

Station data:
(691) Steward Observatory, Kitt Peak - Spacewatch  (N31.962174 W111.600327)
   US/Arizona.  Observer J. V. Scotti. 0.9-m f/3 reflector + CCD.
(807) Cerro Tololo Observatory, La Serena  (S30.169136 W70.805900)  Chile.
   1.5-m Ritchey-Chrétien.
(G96) Mt. Lemmon Survey  (N32.442754 W110.788720)  US/Arizona.  Observers B.
   M. Africano, E. J. Christensen, G. A. Farneth, D. C. Fuls, A. R. Gibbs, A.
   D. Grauer, H. Groeller, J. A. Johnson, R. A. Kowalski, S. M. Larson, G. J.
   Leonard, R. L. Seaman, F. C. Shelly. 1.5-m reflector + 10K CCD.
(I52) Steward Observatory, Mt. Lemmon Station  (N32.442547 W110.788920)
   US/Arizona.  Observers B. M. Africano, E. J. Christensen, G. A. Farneth,
   D. C. Fuls, A. R. Gibbs, A. D. Grauer, H. Groeller, J. A. Johnson, R. A.
   Kowalski, S. M. Larson, G. J. Leonard, R. L. Seaman, F. C. Shelly. 1.0-m
   reflector + CCD.
(L01) Višnjan Observatory, Tičan  (N45.290900 E13.749300)  Croatia.
   Observers K. Korlević, E. Pettarin. Measurer E. Pettarin. 1.0-m f/2.9
   reflector + CCD.

Orbital elements:  C02A3K2
   Perihelion 2018 Dec 15.097358 +/- 2.3 TT =  2:20:11 (JD 2458467.597358)
Epoch 2019 Jan 12.0 TT = JDT 2458495.5   Earth MOID: 0.4077   AutoNEOCP
M   7.36566244 +/- 0.9              (J2000 ecliptic)
n   0.26397723 +/- 0.0166           Peri.  320.01757 +/- 1.8
a   2.40671719 +/- 0.101            Node   121.79748 +/- 0.21
e   0.4528241 +/- 0.0195            Incl.   35.52600 +/- 0.6
P   3.73                   H 20.2   G  0.15   U 10.0  
q 1.31689749 +/- 0.0088    Q 3.49653688 +/- 0.202
From 16 observations 2019 Jan. 11-12 (23.1 hr); mean residual 0".42
Residuals in arcseconds: 
190111 G96  .14+  .35-    190111 I52  .18-  .04+    190112 807  .94+  .25-    
190111 G96  .54+  .08+    190111 L01  .02+  .45+    190112 691  .30-  .07-    
190111 G96  .47+  .03-    190111 L01  .49+  .16-    190112 691  .31-  .14+    
190111 G96  .24+  .04+    190111 L01  .04-  .10+    190112 691  .37-  .37+    
190111 I52  1.2-  .91+    190112 807  .08+  .31-    
190111 I52  .33-  .76-    190112 807  .06-  .23-    

Ephemerides (geocentric):
Date (UTC) HH   RA              Dec         delta   r     elong  mag " sig PA
---- -- -- --  -------------   -----------  ------ ------ -----  --- ---- ---
2019 01 12 21  06 12 23.281   -10 19 37.99  .42928 1.3482 142.1 20.3 .083  35
2019 01 12 22  06 12 21.616   -10 15 56.15  .42926 1.3483 142.1 20.3 .091  27
2019 01 12 23  06 12 19.955   -10 12 14.21  .42925 1.3484 142.2 20.3 .101  20
2019 01 13 00  06 12 18.299   -10 08 32.18  .42923 1.3485 142.2 20.3 .112  14
2019 01 13 01  06 12 16.647   -10 04 50.05  .42922 1.3486 142.2 20.3 .124   9
2019 01 13 02  06 12 14.998   -10 01 07.83  .42921 1.3487 142.2 20.3 .137   5
2019 01 13 03  06 12 13.354   -09 57 25.52  .42920 1.3488 142.3 20.3 .150   1
2019 01 13 04  06 12 11.714   -09 53 43.11  .42919 1.3489 142.3 20.3 .165 178
2019 01 13 05  06 12 10.079   -09 50 00.61  .42918 1.3489 142.3 20.3 .180 175
2019 01 13 06  06 12 08.447   -09 46 18.02  .42917 1.3490 142.4 20.3 .197 172
2019 01 13 07  06 12 06.820   -09 42 35.34  .42916 1.3491 142.4 20.3 .213 170
2019 01 13 08  06 12 05.196   -09 38 52.57  .42915 1.3492 142.4 20.3 .231 168
2019 01 13 09  06 12 03.577   -09 35 09.72  .42914 1.3493 142.4 20.3 .249 166
2019 01 13 10  06 12 01.963   -09 31 26.77  .42913 1.3494 142.5 20.3 .268 164
2019 01 13 11  06 12 00.352   -09 27 43.74  .42913 1.3495 142.5 20.2 .288 162
2019 01 13 12  06 11 58.746   -09 24 00.63  .42912 1.3496 142.5 20.2 .308 161
2019 01 13 13  06 11 57.143   -09 20 17.43  .42912 1.3497 142.6 20.2 .329 160
2019 01 13 14  06 11 55.546   -09 16 34.14  .42911 1.3498 142.6 20.2 .350 158
2019 01 13 15  06 11 53.952   -09 12 50.78  .42911 1.3499 142.6 20.2 .372 157
2019 01 13 16  06 11 52.363   -09 09 07.33  .42910 1.3499 142.6 20.2 .395 156
2019 01 13 17  06 11 50.777   -09 05 23.79  .42910 1.3500 142.7 20.2 .418 155
2019 01 13 18  06 11 49.197   -09 01 40.18  .42910 1.3501 142.7 20.2 .443 154
2019 01 13 19  06 11 47.620   -08 57 56.49  .42910 1.3502 142.7 20.2 .467 153
2019 01 13 20  06 11 46.048   -08 54 12.72  .42910 1.3503 142.8 20.2 .493 152
2019 01 13 21  06 11 44.480   -08 50 28.87  .42910 1.3504 142.8 20.2 .519 151
2019 01 13 22  06 11 42.916   -08 46 44.95  .42910 1.3505 142.8 20.2 .545 150
2019 01 13 23  06 11 41.357   -08 43 00.95  .42910 1.3506 142.8 20.2 .572 150
2019 01 14 00  06 11 39.802   -08 39 16.87  .42911 1.3507 142.9 20.2 .600 149
2019 01 14 01  06 11 38.251   -08 35 32.72  .42911 1.3508 142.9 20.2 .629 148
2019 01 14 02  06 11 36.705   -08 31 48.50  .42911 1.3509 142.9 20.2 .658 148
2019 01 14 03  06 11 35.163   -08 28 04.20  .42912 1.3510 142.9 20.2 .688 147
2019 01 14 04  06 11 33.625   -08 24 19.83  .42912 1.3510 143.0 20.2 .719 146
2019 01 14 05  06 11 32.092   -08 20 35.40  .42913 1.3511 143.0 20.2 .750 146
2019 01 14 06  06 11 30.563   -08 16 50.89  .42913 1.3512 143.0 20.2 .782 145
2019 01 14 07  06 11 29.038   -08 13 06.31  .42914 1.3513 143.0 20.2 .814 145
2019 01 14 08  06 11 27.518   -08 09 21.66  .42915 1.3514 143.1 20.2 .848 144
2019 01 14 09  06 11 26.002   -08 05 36.95  .42916 1.3515 143.1 20.2 .881 144
2019 01 14 10  06 11 24.491   -08 01 52.17  .42917 1.3516 143.1 20.2 .916 143
2019 01 14 11  06 11 22.984   -07 58 07.32  .42918 1.3517 143.1 20.2 .951 143
2019 01 14 12  06 11 21.482   -07 54 22.41  .42919 1.3518 143.2 20.2 .987 142
2019 01 14 13  06 11 19.983   -07 50 37.44  .42920 1.3519 143.2 20.2 1.02 142
2019 01 14 14  06 11 18.490   -07 46 52.40  .42921 1.3520 143.2 20.2 1.06 142
2019 01 14 15  06 11 17.000   -07 43 07.31  .42922 1.3521 143.2 20.2 1.10 141
2019 01 14 16  06 11 15.516   -07 39 22.15  .42924 1.3522 143.3 20.2 1.14 141
2019 01 14 17  06 11 14.035   -07 35 36.93  .42925 1.3523 143.3 20.2 1.18 140
2019 01 14 18  06 11 12.559   -07 31 51.65  .42927 1.3524 143.3 20.2 1.22 140
2019 01 14 19  06 11 11.088   -07 28 06.31  .42928 1.3524 143.3 20.2 1.26 140
2019 01 14 20  06 11 09.621   -07 24 20.91  .42930 1.3525 143.4 20.2 1.30 139